Wind_Speed
35 37 40 39 36 33 37 43 47 48 45 48 49 37 34 28 29 24 26 22 16 11 9 7 8 8 12 15 18 24 25 28 19 15 18 24 25 26 26 27 26 26 23
35 39 39 36 32 31 33 44 42 47 45 47 46 35 30 25 19 22 18 18 15 9 5 6 8 9 14 16 21 23 25 19 19 19 22 25 26 27 29 29 31 29 27
35 39 39 34 31 29 34 37 45 47 44 43 46 40 31 27 24 21 18 17 13 13 11 12 12 12 16 20 22 24 22 21 22 21 27 27 29 31 33 34 33 31 33
36 39 37 37 32 29 31 39 41 49 51 48 46 41 38 34 27 25 21 22 18 14 15 16 16 11 8 9 10 18 21 24 27 28 28 33 36 38 37 34 34 34 37
36 37 36 36 32 29 29 33 42 50 53 53 47 41 41 37 32 31 24 21 20 18 20 24 21 14 5 6 11 17 19 21 30 33 35 37 37 36 36 38 38 38 40
34 34 37 38 31 29 26 29 38 52 51 55 48 47 40 38 37 34 32 29 28 25 23 22 23 24 17 15 18 21 23 26 27 39 41 39 42 43 45 45 46 48 47
33 33 36 32 27 29 28 32 31 48 51 54 52 48 45 39 37 38 32 31 32 28 27 27 26 28 24 22 24 27 32 34 35 37 37 49 51 52 52 52 53 53 52
31 32 34 29 27 33 31 27 28 41 51 52 50 49 49 45 41 39 38 40 42 38 38 32 32 28 28 26 31 34 36 39 39 41 44 44 46 51 52 51 48 48 50
27 31 33 26 29 34 33 27 28 32 47 51 46 44 52 50 50 44 45 47 42 41 34 37 37 35 34 34 34 42 46 46 44 43 46 47 43 46 49 49 52 52 54
24 29 28 27 27 40 36 30 29 37 49 51 47 39 47 45 53 53 51 52 49 44 36 40 37 36 44 39 42 50 55 54 54 53 50 49 50 48 49 49 51 52 56
22 25 24 24 26 42 38 36 35 40 42 51 47 52 56 53 56 50 49 47 49 49 41 44 47 41 47 49 56 59 54 58 60 57 60 56 55 56 54 54 53 54 57
23 23 23 23 25 45 42 43 42 44 48 52 53 54 59 59 58 57 56 54 54 54 47 47 51 54 58 58 63 62 61 63 64 61 60 59 57 57 59 59 58 60 60
22 20 18 20 18 49 49 47 49 44 50 53 55 61 60 60 60 61 63 62 64 60 55 55 59 61 64 67 64 65 69 61 57 57 56 53 54 58 62 62 61 60 61
21 19 17 17 18 31 56 50 51 55 53 56 59 58 61 61 63 66 64 62 62 63 63 62 64 66 65 66 72 66 61 59 58 55 52 57 59 57 60 62 61 63 65
24 18 16 16 17 15 43 60 56 55 59 61 60 64 64 63 63 64 66 67 70 70 68 72 67 68 71 76 73 71 65 63 61 58 57 58 61 65 67 62 64 67 67
28 24 18 13 10 12 16 28 57 64 60 60 65 72 73 71 71 71 73 75 75 72 73 74 77 80 79 73 70 67 66 69 65 63 61 59 57 60 63 67 67 70 74
33 27 21 17 14 13 14 15 19 30 51 68 76 70 67 74 80 82 82 82 84 85 83 83 79 79 75 72 70 70 69 68 65 65 64 66 67 69 73 73 71 71 71
36 31 26 22 22 22 20 20 19 20 23 30 40 58 79 78 68 67 64 65 70 70 71 73 73 71 70 69 71 70 70 69 70 68 69 68 66 63 61 57 56 52 50
42 38 36 30 29 27 26 26 26 25 24 22 25 28 32 38 46 53 58 60 57 59 58 58 64 64 63 65 65 64 63 60 59 61 59 60 59 52 46 46 47 45 45
44 42 37 34 31 33 32 31 30 30 29 30 29 27 28 31 36 41 48 53 57 59 59 57 55 55 51 51 52 49 48 49 50 49 48 50 50 55 55 57 58 54 56
45 43 41 37 36 35 34 35 35 37 35 33 33 35 34 34 35 37 41 43 45 45 46 48 49 49 51 51 52 54 52 57 56 58 57 60 62 66 68 69 68 70 72
47 43 43 41 38 39 43 44 44 44 42 41 39 39 42 42 42 44 47 48 50 53 55 54 56 59 61 61 62 65 65 66 67 69 68 68 70 72 73 72 75 77 78
47 49 50 49 49 49 48 48 47 48 50 50 48 48 47 48 45 46 46 48 49 49 51 51 55 58 60 63 66 69 70 70 71 74 73 72 74 75 76 74 74 76 79
47 43 53 50 53 55 54 53 51 52 55 56 55 52 51 50 51 52 53 53 52 53 53 54 58 58 61 64 68 71 75 77 77 77 74 74 75 77 78 79 81 79 82
57 61 61 60 60 61 59 59 60 58 58 58 56 55 55 54 55 57 58 59 59 58 58 58 59 59 59 62 64 70 72 73 75 77 77 79 82 86 88 87 87 90 91
54 58 59 64 63 66 67 63 63 61 61 61 61 61 60 61 61 62 62 63 63 64 65 65 67 67 68 70 71 71 70 75 79 80 81 83 85 87 88 91 95 96 98
Wind_Direction
267 272 272 276 278 261 247 229 228 224 231 236 239 237 241 241 243 244 238 226 206 201 207 235 263 283 281 275 271 278 287 298 263 230 188 194 208 222 233 241 258 260 272
272 275 279 285 282 261 240 229 227 214 228 231 240 231 230 218 225 215 212 202 203 220 228 294 283 298 287 278 280 296 296 272 213 214 219 222 228 233 243 258 263 270 277
276 277 284 288 279 258 237 223 222 213 225 224 238 226 216 213 223 211 216 203 215 240 262 281 294 285 285 278 279 289 288 246 231 242 237 241 241 249 253 263 270 269 273
273 277 285 284 275 255 235 224 216 208 218 230 233 223 221 219 227 231 227 224 234 251 267 275 281 261 278 275 297 293 295 239 243 249 252 254 253 253 258 259 265 271 279
273 280 283 280 268 247 234 231 216 215 221 229 226 220 219 225 231 236 232 231 241 254 265 266 276 256 253 310 307 304 316 273 250 257 261 263 258 257 258 262 268 278 285
272 279 285 278 264 245 236 233 225 214 223 230 226 220 223 229 238 241 243 244 247 256 262 267 266 259 256 275 305 313 302 295 285 270 264 261 258 261 262 266 275 282 283
272 281 284 278 260 238 239 226 237 220 217 223 217 224 234 235 236 240 245 250 257 257 269 258 266 265 251 269 283 300 304 300 293 288 290 267 263 265 267 273 275 279 283
271 281 285 280 251 226 238 230 233 219 217 223 224 226 228 236 236 242 247 253 257 266 269 245 258 263 254 268 277 289 294 294 292 287 288 288 272 270 273 275 276 277 280
272 279 286 284 234 218 231 221 230 217 214 222 225 231 232 236 234 240 251 257 264 267 257 252 257 264 254 261 272 287 293 290 288 284 286 289 284 274 273 273 276 279 279
270 276 283 286 234 212 227 215 227 224 221 220 228 230 227 240 243 249 257 258 261 267 272 264 254 274 260 267 282 289 290 292 292 286 287 284 282 277 274 276 280 285 284
261 271 283 282 238 213 221 218 218 226 224 223 220 229 235 238 242 247 252 256 259 266 267 270 257 263 260 269 289 289 288 286 289 284 281 283 279 281 277 275 280 283 283
256 262 276 271 246 217 217 219 228 221 225 228 227 224 234 239 243 244 250 255 258 265 267 264 269 270 274 280 283 288 289 284 285 284 283 285 282 279 280 281 278 284 285
248 260 264 271 274 217 219 221 223 228 228 225 228 235 237 238 239 244 248 255 265 265 264 262 265 267 274 278 283 284 285 281 279 282 281 279 282 281 277 279 279 280 279
236 249 254 264 265 231 220 221 222 225 224 232 236 241 246 248 249 251 255 258 261 265 262 266 269 273 274 279 285 284 280 276 276 279 278 276 274 273 276 280 281 281 281
230 240 251 255 265 260 228 225 226 224 231 232 232 236 238 242 246 250 254 256 262 264 267 269 273 269 273 279 278 279 273 274 277 277 275 273 273 274 275 281 281 281 282
229 236 243 255 271 271 256 240 233 232 233 233 240 239 240 245 248 250 254 259 262 264 267 270 270 271 273 274 273 272 271 272 274 278 278 278 278 279 279 281 280 279 281
228 233 238 250 258 268 276 275 259 247 243 239 238 239 242 249 250 254 257 260 260 262 265 267 269 269 270 268 269 270 272 274 276 276 277 279 279 278 280 281 279 280 283
229 233 242 248 259 262 265 273 281 275 261 250 244 247 248 249 248 247 251 254 255 256 259 262 262 264 266 268 270 272 272 275 278 277 279 278 278 276 278 278 279 281 283
232 237 245 251 254 254 261 267 274 277 275 271 269 261 257 257 256 258 260 258 257 261 265 267 268 267 268 270 274 275 277 278 277 277 276 271 273 272 273 284 281 283 285
238 242 244 242 251 257 261 264 269 268 275 280 279 279 276 268 261 259 258 258 259 262 265 267 270 272 273 272 274 276 278 272 279 285 274 276 275 279 282 283 286 284 284
240 245 246 245 247 253 256 261 265 268 269 269 272 269 273 277 270 263 260 258 259 261 265 266 266 270 268 271 270 270 275 270 279 280 281 280 278 283 288 287 286 286 287
243 250 256 262 261 259 260 262 260 263 266 269 268 269 267 269 270 269 269 270 270 270 271 270 269 268 271 276 278 275 275 277 278 279 277 277 279 283 284 282 283 284 284
244 250 250 251 253 253 255 258 263 265 266 270 272 270 268 269 273 276 279 278 279 281 279 279 277 275 275 275 276 282 282 280 279 280 280 283 284 287 288 288 288 285 284
240 242 248 249 254 257 258 257 260 266 268 271 273 273 272 273 273 275 277 278 276 277 280 282 281 279 280 282 284 284 282 280 279 279 279 281 284 289 290 290 291 291 290
243 242 253 251 252 254 256 259 262 267 268 270 270 270 271 272 274 274 276 276 276 279 280 281 283 282 282 285 289 288 287 283 282 281 282 284 286 286 286 287 288 288 287
242 247 247 255 257 261 260 263 266 268 268 267 269 268 270 271 274 275 275 277 277 276 276 279 279 281 283 285 289 291 288 283 284 284 283 285 286 286 285 287 288 289 288
Height
10680 10679 10678 10677 10675 10675 10674 10680 10686 10695 10696 10698 10699 10706 10711 10712 10710 10712 10713 10714 10717 10719 10721 10722 10723 10723 10724 10724 10725 10725 10723 10722 10720 10718 10720 10724 10727 10730 10730 10731 10731 10731 10730
10672 10671 10668 10666 10664 10665 10666 10672 10679 10688 10690 10693 10691 10703 10706 10708 10707 10710 10711 10712 10714 10716 10717 10719 10719 10719 10720 10721 10721 10721 10719 10719 10720 10721 10722 10724 10726 10727 10727 10728 10727 10726 10725
10663 10661 10661 10657 10658 10658 10659 10664 10671 10680 10683 10687 10689 10698 10702 10704 10705 10707 10707 10709 10711 10712 10713 10715 10716 10716 10716 10717 10717 10717 10716 10717 10718 10720 10721 10721 10722 10722 10722 10722 10721 10721 10719
10656 10653 10652 10650 10650 10651 10653 10657 10664 10673 10677 10680 10685 10693 10697 10699 10701 10702 10703 10705 10707 10708 10710 10712 10713 10714 10714 10715 10713 10714 10713 10714 10716 10717 10717 10718 10718 10717 10716 10715 10715 10714 10712
10649 10647 10644 10642 10642 10644 10647 10650 10657 10666 10671 10673 10681 10687 10691 10694 10695 10696 10698 10700 10702 10704 10706 10709 10710 10711 10710 10710 10711 10711 10711 10712 10712 10712 10712 10712 10711 10710 10710 10709 10708 10707 10705
10642 10640 10636 10634 10634 10636 10639 10644 10649 10657 10664 10666 10674 10680 10684 10688 10689 10691 10692 10695 10697 10700 10702 10704 10704 10706 10706 10705 10706 10706 10708 10708 10707 10707 10706 10705 10704 10704 10703 10701 10700 10698 10697
10634 10633 10629 10626 10626 10629 10634 10639 10642 10647 10656 10659 10668 10674 10680 10682 10683 10685 10687 10690 10692 10696 10697 10697 10699 10700 10700 10700 10700 10701 10700 10700 10699 10698 10697 10697 10696 10696 10694 10693 10691 10690 10687
10627 10626 10623 10620 10619 10623 10628 10633 10636 10640 10647 10654 10663 10670 10674 10676 10678 10678 10680 10684 10686 10689 10692 10691 10692 10693 10694 10694 10693 10693 10694 10693 10692 10690 10689 10687 10686 10685 10685 10683 10681 10679 10677
10620 10619 10616 10613 10612 10619 10623 10628 10633 10637 10643 10651 10656 10662 10665 10669 10670 10671 10674 10678 10679 10682 10684 10684 10686 10686 10686 10686 10687 10687 10686 10685 10684 10682 10680 10678 10677 10675 10675 10673 10671 10669 10667
10614 10612 10610 10605 10606 10613 10618 10623 10629 10634 10640 10646 10651 10655 10657 10661 10662 10666 10668 10670 10672 10674 10675 10677 10678 10679 10679 10679 10679 10679 10677 10676 10675 10672 10671 10670 10668 10666 10664 10662 10660 10658 10656
10608 10607 10604 10600 10601 10606 10613 10618 10623 10627 10632 10638 10643 10646 10649 10652 10655 10658 10660 10661 10663 10665 10668 10669 10669 10669 10670 10669 10669 10668 10667 10666 10664 10662 10660 10659 10657 10654 10653 10651 10648 10646 10644
10602 10602 10599 10596 10595 10600 10606 10611 10616 10620 10625 10630 10635 10637 10639 10643 10647 10649 10651 10652 10653 10655 10659 10661 10662 10661 10661 10660 10659 10657 10655 10654 10651 10649 10647 10646 10645 10643 10640 10638 10636 10634 10631
10595 10596 10594 10592 10590 10593 10598 10605 10610 10614 10618 10622 10625 10628 10632 10635 10637 10638 10640 10643 10643 10646 10650 10652 10650 10652 10652 10650 10648 10646 10644 10641 10639 10637 10636 10633 10631 10630 10627 10625 10622 10620 10617
10588 10590 10590 10588 10587 10587 10592 10596 10601 10605 10608 10613 10616 10619 10622 10625 10627 10628 10631 10632 10633 10636 10639 10639 10640 10640 10639 10638 10635 10631 10631 10628 10627 10625 10622 10620 10618 10616 10614 10613 10611 10609 10605
10581 10584 10585 10585 10584 10583 10586 10590 10593 10597 10600 10604 10608 10610 10613 10614 10617 10619 10620 10621 10622 10625 10627 10626 10627 10626 10625 10624 10622 10621 10618 10615 10613 10611 10610 10608 10605 10604 10602 10599 10597 10594 10590
10574 10577 10579 10581 10581 10581 10582 10583 10586 10589 10592 10595 10596 10599 10601 10603 10605 10606 10608 10611 10613 10612 10613 10611 10612 10612 10612 10610 10607 10607 10604 10602 10599 10599 10596 10593 10591 10589 10587 10584 10582 10579 10576
10567 10570 10572 10575 10576 10577 10578 10579 10579 10580 10581 10585 10586 10587 10590 10592 10594 10593 10597 10598 10599 10599 10600 10597 10598 10597 10596 10594 10594 10591 10590 10588 10586 10582 10581 10580 10577 10574 10571 10569 10566 10564 10561
10560 10563 10566 10568 10570 10572 10573 10574 10573 10573 10573 10573 10573 10574 10578 10578 10580 10580 10582 10584 10584 10584 10586 10583 10584 10583 10583 10581 10580 10577 10574 10574 10571 10568 10567 10564 10560 10557 10555 10553 10552 10549 10546
10553 10556 10559 10562 10563 10564 10564 10566 10566 10566 10566 10566 10566 10565 10566 10567 10568 10569 10572 10573 10573 10574 10574 10571 10568 10571 10569 10566 10565 10562 10559 10558 10556 10552 10550 10547 10546 10546 10545 10543 10540 10539 10536
10544 10548 10552 10554 10556 10557 10557 10558 10559 10559 10559 10559 10559 10559 10559 10560 10561 10562 10563 10564 10564 10563 10563 10560 10556 10557 10556 10551 10553 10549 10550 10547 10544 10541 10537 10536 10535 10533 10532 10532 10530 10525 10519
10535 10539 10542 10545 10547 10548 10549 10549 10549 10550 10551 10551 10552 10552 10552 10552 10553 10552 10552 10552 10551 10550 10550 10549 10545 10545 10542 10540 10541 10538 10538 10533 10532 10527 10527 10523 10518 10516 10519 10515 10512 10508 10503
10526 10530 10532 10534 10536 10537 10537 10538 10539 10540 10540 10541 10543 10545 10545 10543 10543 10542 10540 10540 10540 10540 10539 10540 10536 10533 10528 10529 10526 10524 10522 10520 10518 10511 10511 10505 10501 10499 10498 10498 10495 10489 10484
10516 10518 10520 10522 10525 10522 10525 10526 10528 10529 10529 10531 10533 10533 10530 10531 10532 10531 10530 10529 10528 10528 10527 10525 10524 10521 10519 10514 10512 10508 10504 10503 10501 10495 10491 10489 10483 10479 10478 10476 10474 10470 10465
10504 10505 10506 10511 10511 10511 10513 10515 10516 10516 10516 10521 10519 10518 10518 10518 10518 10517 10515 10514 10515 10515 10513 10511 10508 10508 10506 10502 10498 10494 10489 10484 10480 10477 10474 10470 10467 10461 10456 10452 10450 10447 10443
10492 10493 10494 10498 10499 10499 10501 10502 10503 10504 10505 10505 10506 10504 10504 10504 10504 10502 10500 10498 10499 10500 10497 10494 10493 10492 10490 10487 10483 10476 10473 10469 10464 10459 10456 10451 10447 10442 10437 10433 10428 10423 10417
10478 10479 10480 10483 10484 10485 10486 10488 10488 10489 10490 10490 10491 10490 10490 10489 10488 10487 10486 10484 10484 10484 10482 10480 10477 10474 10471 10469 10465 10459 10455 10450 10445 10440 10436 10429 10425 10419 10414 10410 10403 10397 10391